Time,TemperatureF,DewpointF,PressureIn,WindDirection,WindDirectionDegrees,WindSpeedMPH,WindSpeedGustMPH,Humidity,HourlyPrecipIn,Conditions,Clouds,dailyrainin,SoftwareType,DateUTC
2013-03-03 00:00:00,18.1,15.0,30.25,WNW,286,1.0,2.0,86,0.00,,,0.11,weatherlink.com 1.10,2013-03-03 06:00:00,
2013-03-03 00:15:00,18.2,15.0,30.25,WNW,286,2.0,3.0,87,0.00,,,0.11,weatherlink.com 1.10,2013-03-03 06:15:00,
2013-03-03 00:30:00,18.2,15.0,30.25,WNW,286,1.0,3.0,87,0.00,,,0.00,weatherlink.com 1.10,2013-03-03 06:30:00,
2013-03-03 00:45:00,17.6,14.0,30.25,WNW,286,0.0,2.0,87,0.00,,,0.00,weatherlink.com 1.10,2013-03-03 06:45:00,
2013-03-03 01:01:00,17.0,14.0,30.25,WNW,286,0.0,2.0,87,0.00,,,0.00,weatherlink.com 1.10,2013-03-03 07:01:00,
2013-03-03 01:16:00,16.4,14.0,30.25,WNW,286,0.0,2.0,88,0.00,,,0.00,weatherlink.com 1.10,2013-03-03 07:16:00,
2013-03-03 01:31:00,15.8,13.0,30.25,WNW,286,0.0,0.0,88,0.00,,,0.00,weatherlink.com 1.10,2013-03-03 07:31:00,
2013-03-03 01:46:00,15.3,13.0,30.24,WNW,286,0.0,1.0,89,0.00,,,0.00,weatherlink.com 1.10,2013-03-03 07:46:00,
2013-03-03 02:01:00,14.8,12.0,30.23,WNW,286,0.0,1.0,89,0.00,,,0.00,weatherlink.com 1.10,2013-03-03 08:01:00,
2013-03-03 02:16:00,14.3,12.0,30.23,WNW,286,1.0,3.0,90,0.00,,,0.00,weatherlink.com 1.10,2013-03-03 08:16:00,
2013-03-03 02:31:00,14.4,12.0,30.23,WNW,286,0.0,2.0,91,0.00,,,0.00,weatherlink.com 1.10,2013-03-03 08:31:00,
2013-03-03 02:46:00,14.1,12.0,30.22,WNW,286,0.0,1.0,91,0.00,,,0.00,weatherlink.com 1.10,2013-03-03 08:46:00,
2013-03-03 03:01:00,13.5,11.0,30.21,WNW,286,0.0,0.0,90,0.00,,,0.00,weatherlink.com 1.10,2013-03-03 09:01:00,
2013-03-03 03:16:00,13.0,11.0,30.21,WNW,286,2.0,2.0,91,0.00,,,0.00,weatherlink.com 1.10,2013-03-03 09:16:00,
2013-03-03 03:31:00,13.1,11.0,30.20,SSW,208,2.0,4.0,91,0.00,,,0.00,weatherlink.com 1.10,2013-03-03 09:31:00,
2013-03-03 03:46:00,13.5,12.0,30.20,SSW,207,1.0,1.0,92,0.00,,,0.00,weatherlink.com 1.10,2013-03-03 09:46:00,
2013-03-03 04:01:00,13.9,12.0,30.21,SSW,208,1.0,2.0,92,0.00,,,0.00,weatherlink.com 1.10,2013-03-03 10:01:00,
2013-03-03 04:16:00,14.1,12.0,30.21,SSW,208,0.0,2.0,92,0.00,,,0.00,weatherlink.com 1.10,2013-03-03 10:16:00,
2013-03-03 04:31:00,14.2,12.0,30.21,SSW,208,0.0,1.0,92,0.00,,,0.00,weatherlink.com 1.10,2013-03-03 10:31:00,
2013-03-03 04:46:00,13.8,12.0,30.21,SSW,208,0.0,0.0,91,0.00,,,0.00,weatherlink.com 1.10,2013-03-03 10:46:00,
2013-03-03 05:01:00,13.3,11.0,30.20,SSW,207,0.0,2.0,91,0.00,,,0.00,weatherlink.com 1.10,2013-03-03 11:01:00,
2013-03-03 05:16:00,12.6,10.0,30.21,SSW,208,0.0,2.0,90,0.00,,,0.00,weatherlink.com 1.10,2013-03-03 11:16:00,
2013-03-03 05:31:00,13.1,11.0,30.21,SSW,208,0.0,1.0,92,0.00,,,0.00,weatherlink.com 1.10,2013-03-03 11:31:00,
2013-03-03 05:46:00,13.4,12.0,30.20,SSW,208,0.0,2.0,92,0.00,,,0.00,weatherlink.com 1.10,2013-03-03 11:46:00,
2013-03-03 06:01:00,13.1,11.0,30.20,SSW,208,0.0,2.0,91,0.00,,,0.00,weatherlink.com 1.10,2013-03-03 12:01:00,
2013-03-03 06:16:00,12.5,10.0,30.21,SSW,208,0.0,1.0,91,0.00,,,0.00,weatherlink.com 1.10,2013-03-03 12:16:00,
2013-03-03 06:31:00,12.4,11.0,30.20,SSW,208,0.0,1.0,92,0.00,,,0.00,weatherlink.com 1.10,2013-03-03 12:31:00,
2013-03-03 06:46:00,12.8,11.0,30.20,SSW,208,3.0,3.0,92,0.00,,,0.00,weatherlink.com 1.10,2013-03-03 12:46:00,
2013-03-03 07:01:00,12.8,11.0,30.20,SSW,208,1.0,3.0,91,0.00,,,0.00,weatherlink.com 1.10,2013-03-03 13:01:00,
2013-03-03 07:16:00,14.0,12.0,30.20,SSW,208,1.0,3.0,92,0.00,,,0.00,weatherlink.com 1.10,2013-03-03 13:16:00,
2013-03-03 07:31:00,15.9,14.0,30.20,SSW,208,0.0,3.0,91,0.00,,,0.00,weatherlink.com 1.10,2013-03-03 13:31:00,
2013-03-03 07:46:00,17.3,15.0,30.20,SSW,208,1.0,4.0,90,0.00,,,0.00,weatherlink.com 1.10,2013-03-03 13:46:00,
2013-03-03 08:01:00,18.4,16.0,30.20,SSW,206,2.0,5.0,88,0.00,,,0.00,weatherlink.com 1.10,2013-03-03 14:01:00,
2013-03-03 08:31:00,20.5,17.0,30.20,SSE,168,5.0,7.0,86,0.00,,,0.00,weatherlink.com 1.10,2013-03-03 14:31:00,
2013-03-03 08:46:00,21.1,17.0,30.20,South,172,3.0,6.0,85,0.00,,,0.00,weatherlink.com 1.10,2013-03-03 14:46:00,
2013-03-03 09:02:00,22.0,18.0,30.20,SSE,167,1.0,5.0,84,0.00,,,0.00,weatherlink.com 1.10,2013-03-03 15:02:00,
2013-03-03 09:17:00,23.0,18.0,30.20,South,179,1.0,5.0,82,0.00,,,0.00,weatherlink.com 1.10,2013-03-03 15:17:00,
2013-03-03 09:32:00,23.7,19.0,30.20,SE,126,3.0,5.0,81,0.00,,,0.00,weatherlink.com 1.10,2013-03-03 15:32:00,
2013-03-03 09:47:00,24.6,19.0,30.19,SSE,163,6.0,6.0,80,0.00,,,0.00,weatherlink.com 1.10,2013-03-03 15:47:00,
2013-03-03 10:02:00,25.1,19.0,30.19,SSE,163,2.0,6.0,78,0.00,,,0.00,weatherlink.com 1.10,2013-03-03 16:02:00,
2013-03-03 10:17:00,26.4,20.0,30.18,SE,146,8.0,8.0,77,0.00,,,0.00,weatherlink.com 1.10,2013-03-03 16:17:00,
2013-03-03 10:32:00,27.4,21.0,30.18,SE,142,2.0,7.0,76,0.00,,,0.00,weatherlink.com 1.10,2013-03-03 16:32:00,
2013-03-03 10:47:00,28.3,21.0,30.18,SSE,157,3.0,8.0,75,0.00,,,0.00,weatherlink.com 1.10,2013-03-03 16:47:00,
2013-03-03 11:02:00,28.8,21.0,30.17,SSE,147,8.0,9.0,72,0.00,,,0.00,weatherlink.com 1.10,2013-03-03 17:02:00,
2013-03-03 11:17:00,29.5,21.0,30.16,SE,128,8.0,10.0,70,0.00,,,0.00,weatherlink.com 1.10,2013-03-03 17:17:00,
2013-03-03 11:32:00,30.1,21.0,30.15,SE,142,9.0,9.0,68,0.00,,,0.00,weatherlink.com 1.10,2013-03-03 17:32:00,
2013-03-03 11:47:00,30.5,20.0,30.15,SSE,157,5.0,8.0,66,0.00,,,0.00,weatherlink.com 1.10,2013-03-03 17:47:00,
2013-03-03 12:02:00,30.8,20.0,30.14,South,170,5.0,8.0,65,0.00,,,0.00,weatherlink.com 1.10,2013-03-03 18:02:00,
2013-03-03 12:17:00,31.5,20.0,30.13,SSE,150,8.0,10.0,63,0.00,,,0.00,weatherlink.com 1.10,2013-03-03 18:17:00,
2013-03-03 12:32:00,32.3,21.0,30.12,ESE,114,8.0,9.0,63,0.01,,,0.01,weatherlink.com 1.10,2013-03-03 18:32:00,
2013-03-03 12:47:00,32.9,21.0,30.11,SE,136,3.0,10.0,61,0.01,,,0.01,weatherlink.com 1.10,2013-03-03 18:47:00,
2013-03-03 13:02:00,32.7,21.0,30.11,ESE,123,8.0,8.0,62,0.01,,,0.01,weatherlink.com 1.10,2013-03-03 19:02:00,
2013-03-03 13:17:00,32.9,20.0,30.10,SSE,150,4.0,11.0,59,0.01,,,0.01,weatherlink.com 1.10,2013-03-03 19:17:00,
2013-03-03 13:32:00,34.1,21.0,30.09,SSE,152,6.0,10.0,58,0.00,,,0.01,weatherlink.com 1.10,2013-03-03 19:32:00,
2013-03-03 13:47:00,34.2,21.0,30.08,SE,126,5.0,11.0,58,0.00,,,0.01,weatherlink.com 1.10,2013-03-03 19:47:00,
2013-03-03 14:03:00,34.4,20.0,30.07,ESE,121,9.0,11.0,57,0.01,,,0.02,weatherlink.com 1.10,2013-03-03 20:03:00,
2013-03-03 14:18:00,34.4,20.0,30.07,SE,129,8.0,10.0,56,0.01,,,0.02,weatherlink.com 1.10,2013-03-03 20:18:00,
2013-03-03 14:33:00,35.2,20.0,30.07,SE,141,7.0,10.0,54,0.01,,,0.02,weatherlink.com 1.10,2013-03-03 20:33:00,
2013-03-03 14:48:00,35.4,20.0,30.06,SSE,153,7.0,12.0,54,0.01,,,0.03,weatherlink.com 1.10,2013-03-03 20:48:00,
2013-03-03 15:03:00,35.8,20.0,30.06,SE,132,4.0,12.0,54,0.01,,,0.03,weatherlink.com 1.10,2013-03-03 21:03:00,
2013-03-03 15:18:00,35.9,20.0,30.05,SE,125,7.0,12.0,53,0.01,,,0.03,weatherlink.com 1.10,2013-03-03 21:18:00,
2013-03-03 15:33:00,35.9,20.0,30.04,SE,127,7.0,12.0,52,0.02,,,0.04,weatherlink.com 1.10,2013-03-03 21:33:00,
2013-03-03 15:48:00,36.3,20.0,30.04,ESE,110,5.0,12.0,52,0.01,,,0.04,weatherlink.com 1.10,2013-03-03 21:48:00,
2013-03-03 16:03:00,36.5,22.0,30.04,ESE,123,7.0,9.0,56,0.01,,,0.04,weatherlink.com 1.10,2013-03-03 22:03:00,
2013-03-03 16:18:00,35.7,22.0,30.03,East,100,11.0,13.0,57,0.01,,,0.04,weatherlink.com 1.10,2013-03-03 22:18:00,
2013-03-03 16:33:00,35.3,22.0,30.03,ESE,123,11.0,12.0,59,0.00,,,0.04,weatherlink.com 1.10,2013-03-03 22:33:00,
2013-03-03 16:48:00,35.0,22.0,30.03,East,95,9.0,14.0,60,0.00,,,0.04,weatherlink.com 1.10,2013-03-03 22:48:00,
2013-03-03 17:03:00,34.6,23.0,30.02,ESE,117,7.0,14.0,62,0.00,,,0.04,weatherlink.com 1.10,2013-03-03 23:03:00,
2013-03-03 17:18:00,34.4,22.0,30.02,East,88,9.0,14.0,62,0.00,,,0.04,weatherlink.com 1.10,2013-03-03 23:18:00,
2013-03-03 17:33:00,34.4,22.0,30.01,East,100,7.0,14.0,61,0.01,,,0.05,weatherlink.com 1.10,2013-03-03 23:33:00,
2013-03-03 17:48:00,34.3,22.0,30.01,ESE,105,5.0,10.0,62,0.01,,,0.05,weatherlink.com 1.10,2013-03-03 23:48:00,
2013-03-03 18:03:00,34.3,22.0,30.02,East,90,8.0,10.0,61,0.01,,,0.05,weatherlink.com 1.10,2013-03-04 00:03:00,
2013-03-03 18:18:00,34.2,22.0,30.03,ESE,111,7.0,11.0,62,0.01,,,0.05,weatherlink.com 1.10,2013-03-04 00:18:00,
2013-03-03 18:33:00,34.2,22.0,30.03,SE,129,7.0,10.0,62,0.00,,,0.05,weatherlink.com 1.10,2013-03-04 00:33:00,
2013-03-03 18:48:00,34.1,22.0,30.03,ESE,113,3.0,11.0,62,0.00,,,0.05,weatherlink.com 1.10,2013-03-04 00:48:00,
2013-03-03 19:03:00,34.1,23.0,30.02,SE,140,6.0,11.0,63,0.00,,,0.05,weatherlink.com 1.10,2013-03-04 01:03:00,
2013-03-03 19:18:00,33.9,22.0,30.02,SE,128,5.0,10.0,63,0.00,,,0.05,weatherlink.com 1.10,2013-03-04 01:18:00,
2013-03-03 19:33:00,33.8,22.0,30.02,East,94,6.0,8.0,63,0.00,,,0.05,weatherlink.com 1.10,2013-03-04 01:33:00,
2013-03-03 19:48:00,33.8,23.0,30.01,ESE,121,5.0,9.0,64,0.00,,,0.05,weatherlink.com 1.10,2013-03-04 01:48:00,
2013-03-03 20:03:00,33.8,23.0,30.00,East,101,9.0,10.0,64,0.00,,,0.05,weatherlink.com 1.10,2013-03-04 02:03:00,
2013-03-03 20:18:00,33.8,23.0,30.00,ESE,111,5.0,10.0,65,0.00,,,0.05,weatherlink.com 1.10,2013-03-04 02:18:00,
2013-03-03 20:33:00,34.0,23.0,30.00,SE,131,5.0,12.0,65,0.00,,,0.05,weatherlink.com 1.10,2013-03-04 02:33:00,
2013-03-03 20:48:00,34.2,23.0,30.00,SE,136,7.0,10.0,65,0.00,,,0.05,weatherlink.com 1.10,2013-03-04 02:48:00,
2013-03-03 21:03:00,34.3,24.0,30.00,ESE,107,4.0,9.0,65,0.00,,,0.05,weatherlink.com 1.10,2013-03-04 03:03:00,
2013-03-03 21:18:00,34.3,24.0,30.00,ESE,121,5.0,8.0,66,0.00,,,0.05,weatherlink.com 1.10,2013-03-04 03:18:00,
2013-03-03 21:33:00,34.4,24.0,29.99,ESE,119,7.0,11.0,67,0.00,,,0.05,weatherlink.com 1.10,2013-03-04 03:33:00,
2013-03-03 21:48:00,34.5,25.0,29.99,SE,132,5.0,10.0,67,0.00,,,0.05,weatherlink.com 1.10,2013-03-04 03:48:00,
2013-03-03 22:03:00,34.6,25.0,29.99,SE,128,5.0,9.0,67,0.00,,,0.05,weatherlink.com 1.10,2013-03-04 04:03:00,
2013-03-03 22:18:00,34.7,25.0,29.99,SE,145,5.0,11.0,67,0.00,,,0.05,weatherlink.com 1.10,2013-03-04 04:18:00,
2013-03-03 22:33:00,34.9,25.0,29.99,SE,124,7.0,10.0,67,0.00,,,0.05,weatherlink.com 1.10,2013-03-04 04:33:00,
2013-03-03 22:48:00,35.0,25.0,30.00,SE,140,6.0,10.0,67,0.00,,,0.05,weatherlink.com 1.10,2013-03-04 04:48:00,
2013-03-03 23:03:00,35.0,25.0,29.99,ESE,113,4.0,10.0,67,0.00,,,0.05,weatherlink.com 1.10,2013-03-04 05:03:00,
2013-03-03 23:18:00,35.0,25.0,29.99,ESE,115,7.0,11.0,66,0.00,,,0.05,weatherlink.com 1.10,2013-03-04 05:18:00,
2013-03-03 23:33:00,35.1,25.0,29.98,ESE,119,8.0,14.0,67,0.00,,,0.05,weatherlink.com 1.10,2013-03-04 05:33:00,
2013-03-03 23:48:00,35.2,25.0,29.98,SE,139,8.0,12.0,67,0.00,,,0.05,weatherlink.com 1.10,2013-03-04 05:48:00,